CST,Max TemperatureF,Mean TemperatureF,Min TemperatureF,Max Dew PointF,MeanDew PointF,Min DewpointF,Max Humidity, Mean Humidity, Min Humidity, Max Sea Level PressureIn, Mean Sea Level PressureIn, Min Sea Level PressureIn, Max VisibilityMiles, Mean VisibilityMiles, Min VisibilityMiles, Max Wind SpeedMPH, Mean Wind SpeedMPH, Max Gust SpeedMPH,PrecipitationIn, CloudCover, Events, WindDirDegrees
2012-12-1,73,58,42,56,47,40,92,65,38,30.26,30.20,30.16,10,10,7,14,7,18,0.00,0,,171
2012-12-2,76,68,59,61,58,56,90,72,54,30.26,30.19,30.15,10,10,10,18,9,24,0.00,2,,188
2012-12-3,77,67,57,61,58,56,93,70,47,30.21,30.15,30.09,10,10,10,18,11,23,0.00,3,,174
2012-12-4,78,68,58,66,60,57,100,82,64,30.21,30.15,30.09,10,8,2,32,10,46,1.19,7,Rain,169
2012-12-5,63,59,55,58,57,55,100,92,84,30.24,30.16,30.08,10,8,3,12,5,14,0.01,8,Rain,28
2012-12-6,70,64,57,61,59,56,100,88,76,30.06,30.01,29.94,10,7,1,8,2,16,0.01,7,Rain,159
2012-12-7,72,63,53,61,57,54,100,81,61,29.98,29.92,29.86,10,8,2,14,5,16,T,4,Rain,193
2012-12-8,72,64,55,63,59,56,100,83,66,29.96,29.92,29.90,10,7,1,15,5,18,0.22,6,Rain,189
2012-12-9,76,68,60,66,62,58,93,79,64,29.96,29.87,29.78,10,9,1,22,12,36,0.30,4,Rain,195
2012-12-10,64,48,31,61,46,28,100,83,65,30.09,29.89,29.76,10,8,2,22,9,36,0.78,6,Rain,319
2012-12-11,48,37,26,30,28,25,100,73,45,30.26,30.17,30.09,10,10,10,12,4,16,0.00,1,,3
2012-12-12,55,41,26,29,25,19,92,59,26,30.36,30.31,30.26,10,10,10,13,4,18,0.00,0,,10
2012-12-13,62,42,22,34,26,18,96,58,19,30.41,30.34,30.27,10,10,10,9,3,17,0.00,0,,68
2012-12-14,65,47,29,47,36,27,92,63,34,30.31,30.21,30.07,10,10,9,13,4,16,0.01,2,Rain,115
2012-12-15,70,61,52,61,54,46,89,78,66,30.08,29.97,29.87,10,10,10,21,13,28,0.02,7,Rain,172
2012-12-16,68,63,57,63,61,57,100,91,81,29.89,29.85,29.78,10,6,1,28,9,38,1.98,8,Rain,195
2012-12-17,66,54,42,58,54,42,93,73,52,29.90,29.77,29.70,10,9,2,16,7,25,0.02,5,Rain,226
2012-12-18,67,50,33,45,40,34,100,69,37,29.99,29.92,29.88,10,7,1,16,7,21,0.00,0,,181
2012-12-19,74,61,48,59,47,42,80,58,35,30.00,29.89,29.75,10,10,10,23,12,29,0.00,1,,171
2012-12-20,70,55,40,65,42,22,87,65,42,30.24,29.90,29.64,10,9,2,29,14,49,0.11,5,Rain,260
2012-12-21,50,38,26,29,22,16,92,59,26,30.41,30.35,30.25,10,10,10,14,5,20,0.00,0,,300
2012-12-22,60,42,23,33,28,21,92,60,27,30.38,30.29,30.17,10,10,10,13,3,15,0.00,0,,195
2012-12-23,60,51,42,56,47,30,93,74,54,30.15,30.03,29.85,10,9,2,18,11,24,0.09,6,Rain,182
2012-12-24,63,55,46,58,53,46,100,84,67,29.94,29.88,29.81,10,9,5,17,7,22,0.01,5,Rain,254
2012-12-25,53,45,37,50,47,36,100,95,89,29.93,29.72,29.42,10,6,2,31,14,44,1.57,7,Rain,73
2012-12-26,37,35,32,34,28,25,96,83,69,30.23,30.02,29.65,10,9,4,21,9,31,0.02,8,Rain-Snow,311
2012-12-27,46,35,23,32,28,23,100,79,58,30.22,30.14,30.04,10,10,10,9,4,13,0.00,2,,102
2012-12-28,46,42,38,45,39,33,100,88,76,30.04,29.92,29.75,10,6,2,15,7,20,0.57,8,Rain,52
2012-12-29,40,32,23,36,28,21,92,73,54,30.46,30.23,30.01,10,9,7,15,6,24,0.00,5,,305
2012-12-30,48,34,19,31,24,18,100,71,41,30.57,30.47,30.35,10,9,5,12,2,15,0.00,0,,76
2012-12-31,57,43,29,52,38,27,85,73,60,30.35,30.19,29.99,10,9,2,23,6,31,0.16,6,Rain,148